Time,TemperatureF,DewpointF,PressureIn,WindDirection,WindDirectionDegrees,WindSpeedMPH,WindSpeedGustMPH,Humidity,HourlyPrecipIn,Conditions,Clouds,dailyrainin,SolarRadiationWatts/m^2,SoftwareType,DateUTC
2013-05-07 00:21:00,31.0,23.0,-100.00,SSW,213,0.0,1.0,73,0.00,,,0.00,0.000000,,2013-05-07 08:21:00,
2013-05-07 00:31:00,31.0,23.0,-100.00,SSW,213,0.0,1.0,73,0.00,,,0.00,0.000000,,2013-05-07 08:31:00,
2013-05-07 00:41:00,31.0,23.0,-100.00,SSW,213,0.0,1.0,73,0.00,,,0.00,0.000000,,2013-05-07 08:41:00,
2013-05-07 00:52:00,31.0,23.0,-100.00,SSW,213,0.0,1.0,73,0.00,,,0.00,0.000000,,2013-05-07 08:52:00,
2013-05-07 01:22:00,30.0,24.0,-100.00,SSE,163,0.0,1.0,77,0.00,,,0.00,0.000000,,2013-05-07 09:22:00,
2013-05-07 01:33:00,30.0,24.0,-100.00,SSE,163,0.0,1.0,77,0.00,,,0.00,0.000000,,2013-05-07 09:33:00,
2013-05-07 01:42:00,30.0,24.0,-100.00,SSE,163,0.0,1.0,77,0.00,,,0.00,0.000000,,2013-05-07 09:42:00,
2013-05-07 01:52:00,30.0,24.0,-100.00,SSE,163,0.0,1.0,77,0.00,,,0.00,0.000000,,2013-05-07 09:52:00,
2013-05-07 02:23:00,29.0,24.0,-100.00,South,169,0.0,1.0,80,0.00,,,0.00,0.000000,,2013-05-07 10:23:00,
2013-05-07 02:32:00,29.0,24.0,-100.00,South,169,0.0,1.0,80,0.00,,,0.00,0.000000,,2013-05-07 10:32:00,
2013-05-07 02:42:00,29.0,24.0,-100.00,South,169,0.0,1.0,80,0.00,,,0.00,0.000000,,2013-05-07 10:42:00,
2013-05-07 02:52:00,29.0,24.0,-100.00,South,169,0.0,1.0,80,0.00,,,0.00,0.000000,,2013-05-07 10:52:00,
2013-05-07 03:22:00,29.0,24.0,-100.00,South,186,1.0,2.0,80,0.00,,,0.00,0.000000,,2013-05-07 11:22:00,
2013-05-07 03:32:00,29.0,24.0,-100.00,South,186,1.0,2.0,80,0.00,,,0.00,0.000000,,2013-05-07 11:32:00,
2013-05-07 03:42:00,29.0,24.0,-100.00,South,186,1.0,2.0,80,0.00,,,0.00,0.000000,,2013-05-07 11:42:00,
2013-05-07 03:51:00,29.0,24.0,-100.00,South,186,1.0,2.0,80,0.00,,,0.00,0.000000,,2013-05-07 11:51:00,
2013-05-07 04:21:00,26.0,22.0,-100.00,South,178,0.0,1.0,86,0.00,,,0.00,0.000000,,2013-05-07 12:21:00,
2013-05-07 04:32:00,26.0,22.0,-100.00,South,178,0.0,1.0,86,0.00,,,0.00,0.000000,,2013-05-07 12:32:00,
2013-05-07 04:42:00,26.0,22.0,-100.00,South,178,0.0,1.0,86,0.00,,,0.00,0.000000,,2013-05-07 12:42:00,
2013-05-07 04:52:00,26.0,22.0,-100.00,South,178,0.0,1.0,86,0.00,,,0.00,0.000000,,2013-05-07 12:52:00,
2013-05-07 05:21:00,26.0,23.0,-100.00,SW,219,0.0,1.0,88,0.00,,,0.00,0.000000,,2013-05-07 13:21:00,
2013-05-07 05:32:00,26.0,23.0,-100.00,SW,219,0.0,1.0,88,0.00,,,0.00,0.000000,,2013-05-07 13:32:00,
2013-05-07 05:42:00,26.0,23.0,-100.00,SW,219,0.0,1.0,88,0.00,,,0.00,0.000000,,2013-05-07 13:42:00,
2013-05-07 05:52:00,26.0,23.0,-100.00,SW,219,0.0,1.0,88,0.00,,,0.00,0.000000,,2013-05-07 13:52:00,
2013-05-07 06:21:00,26.0,23.0,-100.00,SSW,193,0.0,2.0,87,0.00,,,0.00,17.000000,,2013-05-07 14:21:00,
2013-05-07 06:31:00,26.0,23.0,-100.00,SSW,193,0.0,2.0,87,0.00,,,0.00,17.000000,,2013-05-07 14:31:00,
2013-05-07 06:42:00,26.0,23.0,-100.00,SSW,193,0.0,2.0,87,0.00,,,0.00,17.000000,,2013-05-07 14:42:00,
2013-05-07 06:52:00,26.0,23.0,-100.00,SSW,193,0.0,2.0,87,0.00,,,0.00,17.000000,,2013-05-07 14:52:00,
2013-05-07 07:21:00,31.0,23.0,-100.00,SSW,192,0.0,2.0,73,0.00,,,0.00,90.000000,,2013-05-07 15:21:00,
2013-05-07 07:33:00,31.0,23.0,-100.00,SSW,192,0.0,2.0,73,0.00,,,0.00,90.000000,,2013-05-07 15:33:00,
2013-05-07 07:42:00,31.0,23.0,-100.00,SSW,192,0.0,2.0,73,0.00,,,0.00,90.000000,,2013-05-07 15:42:00,
2013-05-07 07:52:00,31.0,23.0,-100.00,SSW,192,0.0,2.0,73,0.00,,,0.00,90.000000,,2013-05-07 15:52:00,
2013-05-07 10:21:00,45.0,23.0,-100.00,North,4,2.0,4.0,42,-99.99,,,0.00,498.000000,,2013-05-07 18:21:00,
2013-05-07 10:31:00,45.0,23.0,-100.00,North,4,2.0,4.0,42,-99.99,,,0.00,498.000000,,2013-05-07 18:31:00,
2013-05-07 10:41:00,45.0,23.0,-100.00,North,4,2.0,4.0,42,-99.99,,,0.00,498.000000,,2013-05-07 18:41:00,
2013-05-07 10:51:00,45.0,23.0,-100.00,North,4,2.0,4.0,42,-99.99,,,0.00,498.000000,,2013-05-07 18:51:00,
2013-05-07 11:21:00,45.0,23.0,-100.00,WNW,289,3.0,9.0,41,0.00,,,0.00,519.000000,,2013-05-07 19:21:00,
2013-05-07 11:32:00,45.0,23.0,-100.00,WNW,289,3.0,9.0,41,0.00,,,0.00,519.000000,,2013-05-07 19:32:00,
2013-05-07 11:41:00,45.0,23.0,-100.00,WNW,289,3.0,9.0,41,0.00,,,0.00,519.000000,,2013-05-07 19:41:00,
2013-05-07 11:52:00,45.0,23.0,-100.00,WNW,289,3.0,9.0,41,0.00,,,0.00,519.000000,,2013-05-07 19:52:00,
2013-05-07 12:21:00,48.0,23.0,-100.00,NE,55,4.0,8.0,37,0.00,,,0.00,660.000000,,2013-05-07 20:21:00,
2013-05-07 12:32:00,48.0,23.0,-100.00,NE,55,4.0,8.0,37,0.00,,,0.00,660.000000,,2013-05-07 20:32:00,
2013-05-07 12:41:00,48.0,23.0,-100.00,NE,55,4.0,8.0,37,0.00,,,0.00,660.000000,,2013-05-07 20:41:00,
2013-05-07 12:51:00,48.0,23.0,-100.00,NE,55,4.0,8.0,37,0.00,,,0.00,660.000000,,2013-05-07 20:51:00,
2013-05-07 13:21:00,49.0,21.0,-100.00,NW,314,3.0,9.0,33,0.00,,,0.00,768.000000,,2013-05-07 21:21:00,
2013-05-07 13:32:00,49.0,21.0,-100.00,NW,314,3.0,9.0,33,0.00,,,0.00,768.000000,,2013-05-07 21:32:00,
2013-05-07 13:42:00,49.0,21.0,-100.00,NW,314,3.0,9.0,33,0.00,,,0.00,768.000000,,2013-05-07 21:42:00,
2013-05-07 13:52:00,49.0,21.0,-100.00,NW,314,3.0,9.0,33,0.00,,,0.00,768.000000,,2013-05-07 21:52:00,
2013-05-07 14:22:00,51.0,23.0,-100.00,NW,306,3.0,9.0,33,0.00,,,0.00,786.000000,,2013-05-07 22:22:00,
2013-05-07 14:32:00,51.0,23.0,-100.00,NW,306,3.0,9.0,33,0.00,,,0.00,786.000000,,2013-05-07 22:32:00,
2013-05-07 14:42:00,51.0,23.0,-100.00,NW,306,3.0,9.0,33,0.00,,,0.00,786.000000,,2013-05-07 22:42:00,
2013-05-07 14:52:00,51.0,23.0,-100.00,NW,306,3.0,9.0,33,0.00,,,0.00,786.000000,,2013-05-07 22:52:00,
2013-05-07 15:21:00,51.0,23.0,-100.00,NNW,345,3.0,9.0,33,0.00,,,0.00,641.000000,,2013-05-07 23:21:00,
2013-05-07 15:32:00,51.0,23.0,-100.00,NNW,345,3.0,9.0,33,0.00,,,0.00,641.000000,,2013-05-07 23:32:00,
2013-05-07 15:41:00,51.0,23.0,-100.00,NNW,345,3.0,9.0,33,0.00,,,0.00,641.000000,,2013-05-07 23:41:00,
2013-05-07 15:52:00,51.0,23.0,-100.00,NNW,345,3.0,9.0,33,0.00,,,0.00,641.000000,,2013-05-07 23:52:00,
2013-05-07 16:21:00,50.0,22.0,-100.00,WNW,287,5.0,9.0,33,0.00,,,0.00,559.000000,,2013-05-08 00:21:00,
2013-05-07 16:32:00,50.0,22.0,-100.00,WNW,287,5.0,9.0,33,0.00,,,0.00,559.000000,,2013-05-08 00:32:00,
2013-05-07 16:42:00,50.0,22.0,-100.00,WNW,287,5.0,9.0,33,0.00,,,0.00,559.000000,,2013-05-08 00:42:00,
2013-05-07 16:51:00,50.0,22.0,-100.00,WNW,287,5.0,9.0,33,0.00,,,0.00,559.000000,,2013-05-08 00:51:00,
2013-05-07 17:21:00,50.0,23.0,-100.00,WNW,298,3.0,8.0,34,0.00,,,0.00,467.000000,,2013-05-08 01:21:00,
2013-05-07 17:31:00,50.0,23.0,-100.00,WNW,298,3.0,8.0,34,0.00,,,0.00,467.000000,,2013-05-08 01:31:00,
2013-05-07 17:42:00,50.0,23.0,-100.00,WNW,298,3.0,8.0,34,0.00,,,0.00,467.000000,,2013-05-08 01:42:00,
2013-05-07 17:52:00,50.0,23.0,-100.00,WNW,298,3.0,8.0,34,0.00,,,0.00,467.000000,,2013-05-08 01:52:00,
2013-05-07 18:22:00,49.0,21.0,-100.00,West,270,3.0,7.0,33,0.00,,,0.00,302.000000,,2013-05-08 02:22:00,
2013-05-07 18:31:00,49.0,21.0,-100.00,West,270,3.0,7.0,33,0.00,,,0.00,302.000000,,2013-05-08 02:31:00,
2013-05-07 18:42:00,49.0,21.0,-100.00,West,270,3.0,7.0,33,0.00,,,0.00,302.000000,,2013-05-08 02:42:00,
2013-05-07 18:51:00,49.0,21.0,-100.00,West,270,3.0,7.0,33,0.00,,,0.00,302.000000,,2013-05-08 02:51:00,
2013-05-07 19:21:00,47.0,24.0,-100.00,East,95,3.0,6.0,40,0.00,,,0.00,223.000000,,2013-05-08 03:21:00,
2013-05-07 19:32:00,47.0,24.0,-100.00,East,95,3.0,6.0,40,0.00,,,0.00,223.000000,,2013-05-08 03:32:00,
2013-05-07 19:43:00,47.0,24.0,-100.00,East,95,3.0,6.0,40,0.00,,,0.00,223.000000,,2013-05-08 03:43:00,
2013-05-07 19:52:00,47.0,24.0,-100.00,East,95,3.0,6.0,40,0.00,,,0.00,223.000000,,2013-05-08 03:52:00,
2013-05-07 20:22:00,45.0,25.0,-100.00,ESE,119,2.0,6.0,46,0.00,,,0.00,145.000000,,2013-05-08 04:22:00,
2013-05-07 20:33:00,45.0,25.0,-100.00,ESE,119,2.0,6.0,46,0.00,,,0.00,145.000000,,2013-05-08 04:33:00,
2013-05-07 20:42:00,45.0,25.0,-100.00,ESE,119,2.0,6.0,46,0.00,,,0.00,145.000000,,2013-05-08 04:42:00,
2013-05-07 20:52:00,45.0,25.0,-100.00,ESE,119,2.0,6.0,46,0.00,,,0.00,145.000000,,2013-05-08 04:52:00,
2013-05-07 21:22:00,42.0,27.0,-100.00,ESE,120,2.0,6.0,54,0.00,,,0.00,83.000000,,2013-05-08 05:22:00,
2013-05-07 21:32:00,42.0,27.0,-100.00,ESE,120,2.0,6.0,54,0.00,,,0.00,83.000000,,2013-05-08 05:32:00,
2013-05-07 21:42:00,42.0,27.0,-100.00,ESE,120,2.0,6.0,54,0.00,,,0.00,83.000000,,2013-05-08 05:42:00,
2013-05-07 21:52:00,42.0,27.0,-100.00,ESE,120,2.0,6.0,54,0.00,,,0.00,83.000000,,2013-05-08 05:52:00,
2013-05-07 22:21:00,37.0,26.0,-100.00,ESE,112,3.0,6.0,63,0.00,,,0.00,20.000000,,2013-05-08 06:21:00,
2013-05-07 22:32:00,37.0,26.0,-100.00,ESE,112,3.0,6.0,63,0.00,,,0.00,20.000000,,2013-05-08 06:32:00,
2013-05-07 22:41:00,37.0,26.0,-100.00,ESE,112,3.0,6.0,63,0.00,,,0.00,20.000000,,2013-05-08 06:41:00,
2013-05-07 22:51:00,37.0,26.0,-100.00,ESE,112,3.0,6.0,63,0.00,,,0.00,20.000000,,2013-05-08 06:51:00,
2013-05-07 23:21:00,34.0,26.0,-100.00,SSE,147,0.0,5.0,71,0.00,,,0.00,1.000000,,2013-05-08 07:21:00,
2013-05-07 23:31:00,34.0,26.0,-100.00,SSE,147,0.0,5.0,71,0.00,,,0.00,1.000000,,2013-05-08 07:31:00,
2013-05-07 23:42:00,34.0,26.0,-100.00,SSE,147,0.0,5.0,71,0.00,,,0.00,1.000000,,2013-05-08 07:42:00,
2013-05-07 23:52:00,34.0,26.0,-100.00,SSE,147,0.0,5.0,71,0.00,,,0.00,1.000000,,2013-05-08 07:52:00,